H1 CPF 2 NER 2021 9 11 9 254 01 glonass106 H2 0705201 9106 32275 2021 9 11 0 0 0 2021 9 14 23 45 0 900 1 1 0 0 0 1 H9 10 0 59468 0.00000 0 2751867.457 12021686.329 22327511.236 10 0 59468 900.00000 0 166461.765 10931515.353 23043976.997 10 0 59468 1800.00000 0 -2552730.943 10024396.607 23312824.387 10 0 59468 2700.00000 0 -5338686.428 9327227.136 23128775.268 10 0 59468 3600.00000 0 -8120623.803 8854668.743 22495346.630 10 0 59468 4500.00000 0 -10826720.690 8608609.743 21424786.909 10 0 59468 5400.00000 0 -13386880.008 8578180.224 19937843.116 10 0 59468 6300.00000 0 -15735434.007 8740320.297 18063362.683 10 0 59468 7200.00000 0 -17813673.304 9060877.366 15837737.223 10 0 59468 8100.00000 0 -19572095.859 9496186.117 13304198.393 10 0 59468 9000.00000 0 -20972282.266 9995064.481 10511979.053 10 0 59468 9900.00000 0 -21988318.994 10501141.035 7515355.765 10 0 59468 10800.00000 0 -22607710.278 10955415.110 4372591.170 10 0 59468 11700.00000 0 -22831740.637 11298940.702 1144796.988 10 0 59468 12600.00000 0 -22675273.235 11475519.916 -2105259.675 10 0 59468 13500.00000 0 -22165993.166 11434291.028 -5314382.885 10 0 59468 14400.00000 0 -21343128.285 11132100.709 -8420182.643 10 0 59468 15300.00000 0 -20255702.343 10535559.096 -11362292.960 10 0 59468 16200.00000 0 -18960394.975 9622689.967 -14083548.876 10 0 59468 17100.00000 0 -17519099.559 8384105.464 -16531099.053 10 0 59468 18000.00000 0 -15996282.551 6823655.196 -18657431.999 10 0 59468 18900.00000 0 -14456255.893 4958521.710 -20421296.112 10 0 59468 19800.00000 0 -12960477.376 2818757.708 -21788496.032 10 0 59468 20700.00000 0 -11564992.218 446283.856 -22732550.391 10 0 59468 21600.00000 0 -10318122.738 -2106611.524 -23235199.019 10 0 59468 22500.00000 0 -9258502.228 -4779209.005 -23286750.529 10 0 59468 23400.00000 0 -8413534.450 -7504650.811 -22886264.313 10 0 59468 24300.00000 0 -7798342.189 -10212495.263 -22041564.011 10 0 59468 25200.00000 0 -7415247.757 -12831427.627 -20769082.586 10 0 59468 26100.00000 0 -7253806.185 -15292015.575 -19093542.164 10 0 59468 27000.00000 0 -7291388.774 -17529395.714 -17047474.716 10 0 59468 27900.00000 0 -7494291.744 -19485780.427 -14670592.581 10 0 59468 28800.00000 0 -7819322.890 -21112681.446 -12009020.617 10 0 59468 29700.00000 0 -8215799.099 -22372758.322 -9114404.375 10 0 59468 30600.00000 0 -8627870.361 -23241215.347 -6042911.084 10 0 59468 31500.00000 0 -8997072.137 -23706689.058 -2854142.549 10 0 59468 32400.00000 0 -9264998.211 -23771589.700 390019.238 10 0 59468 33300.00000 0 -9375980.928 -23451882.746 3626611.475 10 0 59468 34200.00000 0 -9279665.327 -22776319.922 6792811.520 10 0 59468 35100.00000 0 -8933367.942 -21785152.343 9827155.651 10 0 59468 36000.00000 0 -8304120.043 -20528379.963 12670731.831 10 0 59468 36900.00000 0 -7370308.323 -19063611.063 15268323.085 10 0 59468 37800.00000 0 -6122842.876 -17453621.747 17569479.257 10 0 59468 38700.00000 0 -4565802.109 -15763717.863 19529496.390 10 0 59468 39600.00000 0 -2716526.224 -14059010.016 21110284.776 10 0 59468 40500.00000 0 -605153.885 -12401715.721 22281109.024 10 0 59468 41400.00000 0 1726380.089 -10848601.491 23019186.051 10 0 59468 42300.00000 0 4225845.536 -9448671.696 23310129.496 10 0 59468 43200.00000 0 6832655.183 -8241200.599 23148232.075 10 0 59468 44100.00000 0 9480160.873 -7254189.542 22536580.335 10 0 59468 45000.00000 0 12098213.249 -6503313.550 21486999.344 10 0 59468 45900.00000 0 14615879.370 -5991401.099 20019828.032 10 0 59468 46800.00000 0 16964205.798 -5708468.505 18163528.986 10 0 59468 47700.00000 0 19078912.497 -5632307.155 15954139.721 10 0 59468 48600.00000 0 20902905.460 -5729598.523 13434575.494 10 0 59468 49500.00000 0 22388503.311 -5957509.592 10653796.683 10 0 59468 50400.00000 0 23499284.654 -6265700.930 7665856.685 10 0 59468 51300.00000 0 24211478.843 -6598662.038 4528848.736 10 0 59468 52200.00000 0 24514841.835 -6898274.512 1303772.310 10 0 59468 53100.00000 0 24412980.453 -7106493.741 -1946658.302 10 0 59468 54000.00000 0 23923111.725 -7168034.702 -5159239.464 10 0 59468 54900.00000 0 23075267.910 -7032947.131 -8271513.097 10 0 59468 55800.00000 0 21910981.272 -6658970.086 -11222986.119 10 0 59468 56700.00000 0 20481504.730 -6013565.370 -13956310.043 10 0 59468 57600.00000 0 18845644.005 -5075542.970 -16418397.285 10 0 59468 58500.00000 0 17067293.137 -3836209.180 -18561452.180 10 0 59468 59400.00000 0 15212777.495 -2299988.337 -20343896.728 10 0 59468 60300.00000 0 13348116.020 -484491.353 -21731173.468 10 0 59468 61200.00000 0 11536317.557 1579972.371 -22696410.398 10 0 59468 62100.00000 0 9834824.121 3851419.868 -23220935.814 10 0 59468 63000.00000 0 8293207.369 6277714.197 -23294633.904 10 0 59468 63900.00000 0 6951213.729 8798515.964 -22916134.903 10 0 59468 64800.00000 0 5837238.674 11347586.284 -22092836.790 10 0 59468 65700.00000 0 4967292.638 13855346.170 -20840758.476 10 0 59468 66600.00000 0 4344500.548 16251586.684 -19184227.510 10 0 59468 67500.00000 0 3959154.641 18468217.990 -17155408.273 10 0 59468 68400.00000 0 3789317.238 20441943.736 -14793679.486 10 0 59468 69300.00000 0 3801947.280 22116750.066 -12144872.740 10 0 59468 70200.00000 0 3954502.529 23446106.155 -9260386.294 10 0 59468 71100.00000 0 4196949.454 24394784.957 -6196190.848 10 0 59468 72000.00000 0 4474095.708 24940228.400 -3011746.270 10 0 59468 72900.00000 0 4728146.459 25073400.252 231149.972 10 0 59468 73800.00000 0 4901376.328 24799091.101 3469560.478 10 0 59468 74700.00000 0 4938803.740 24135662.784 6640628.290 10 0 59468 75600.00000 0 4790754.244 23114243.071 9682796.241 10 0 59468 76500.00000 0 4415203.996 21777404.402 12537001.463 10 0 59468 77400.00000 0 3779803.753 20177382.115 15147821.629 10 0 59468 78300.00000 0 2863497.175 18373906.849 17464550.676 10 0 59468 79200.00000 0 1657664.175 16431741.851 19442183.133 10 0 59468 80100.00000 0 166740.070 14418028.222 21042288.004 10 0 59468 81000.00000 0 -1591716.822 12399548.986 22233755.455 10 0 59468 81900.00000 0 -3587513.473 10440026.055 22993402.045 10 0 59468 82800.00000 0 -5778847.327 8597562.789 23306422.883 10 0 59468 83700.00000 0 -8113827.060 6922338.505 23166682.067 10 0 59468 84600.00000 0 -10532426.887 5454650.769 22576835.714 10 0 59468 85500.00000 0 -12968794.119 4223386.824 21548284.967 10 0 59469 0.00000 0 -15353814.851 3244987.448 20100959.596 10 0 59469 900.00000 0 -17617831.714 2522946.256 18262935.583 10 0 59469 1800.00000 0 -19693400.855 2047864.288 16069894.206 10 0 59469 2700.00000 0 -21517973.005 1798058.125 13564431.674 10 0 59469 3600.00000 0 -23036387.414 1740694.003 10795232.905 10 0 59469 4500.00000 0 -24203073.408 1833400.503 7816124.899 10 0 59469 5400.00000 0 -24983867.538 2026290.556 4685028.128 10 0 59469 6300.00000 0 -25357369.720 2264306.628 1462826.420 10 0 59469 7200.00000 0 -25315781.251 2489788.982 -1787822.111 10 0 59469 8100.00000 0 -24865189.428 2645157.308 -5003709.391 10 0 59469 9000.00000 0 -24025286.913 2675591.141 -8122312.395 10 0 59469 9900.00000 0 -22828538.000 2531594.569 -11083013.902 10 0 59469 10800.00000 0 -21318827.287 2171335.698 -13828284.623 10 0 59469 11700.00000 0 -19549648.167 1562661.054 -16304803.177 10 0 59469 12600.00000 0 -17581907.810 684699.076 -18464491.802 10 0 59469 13500.00000 0 -15481441.298 -471015.604 -20265447.760 10 0 59469 14400.00000 0 -13316339.361 -1899945.040 -21672752.658 10 0 59469 15300.00000 0 -11154201.728 -3584503.629 -22659144.499 10 0 59469 16200.00000 0 -9059430.666 -5494568.943 -23205540.181 10 0 59469 17100.00000 0 -7090677.142 -7588526.977 -23301399.113 10 0 59469 18000.00000 0 -5298545.394 -9814808.713 -22944921.605 10 0 59469 18900.00000 0 -3723650.522 -12113854.573 -22143078.850 10 0 59469 19800.00000 0 -2395108.757 -14420425.692 -20911474.300 10 0 59469 20700.00000 0 -1329522.099 -16666166.366 -19274039.303 10 0 59469 21600.00000 0 -530498.238 -18782311.798 -17262568.862 10 0 59469 22500.00000 0 11275.515 -20702429.036 -14916106.195 10 0 59469 23400.00000 0 317408.572 -22365077.422 -12280187.669 10 0 59469 24300.00000 0 420660.937 -23716278.102 -9405962.262 10 0 59469 25200.00000 0 363323.611 -24711689.857 -6349202.144 10 0 59469 26100.00000 0 195194.378 -25318400.470 -3169223.251 10 0 59469 27000.00000 0 -28765.165 -25516258.792 72263.481 10 0 59469 27900.00000 0 -250991.997 -25298691.707 3312348.066 10 0 59469 28800.00000 0 -413994.901 -24672971.620 6488141.284 10 0 59469 29700.00000 0 -463025.140 -23659923.133 9537994.616 10 0 59469 30600.00000 0 -348631.282 -22293080.986 12402696.486 10 0 59469 31500.00000 0 -28989.698 -20617334.362 15026621.353 10 0 59469 32400.00000 0 528088.302 -18687114.124 17358809.342 10 0 59469 33300.00000 0 1343558.208 -16564198.605 19353955.458 10 0 59469 34200.00000 0 2426021.156 -14315229.486 20973289.242 10 0 59469 35100.00000 0 3771128.227 -12009041.228 22185328.018 10 0 59469 36000.00000 0 5361536.466 -9713915.180 22966489.323 10 0 59469 36900.00000 0 7167419.869 -7494872.528 23301550.770 10 0 59469 37800.00000 0 9147515.327 -5411118.492 23183948.571 10 0 59469 38700.00000 0 11250661.282 -3513743.745 22615908.843 10 0 59469 39600.00000 0 13417766.016 -1843778.429 21608408.948 10 0 59469 40500.00000 0 15584124.565 -430679.297 20180969.282 10 0 59469 41400.00000 0 17681988.418 708687.475 18361278.981 10 0 59469 42300.00000 0 19643281.252 1570525.864 16184662.306 10 0 59469 43200.00000 0 21402347.535 2164032.656 13693395.459 10 0 59469 44100.00000 0 22898619.116 2510767.143 10935886.575 10 0 59469 45000.00000 0 24079087.866 2643495.178 7965734.601 10 0 59469 45900.00000 0 24900480.400 2604557.152 4840685.199 10 0 59469 46800.00000 0 25331043.149 2443829.740 1621504.156 10 0 59469 47700.00000 0 25351862.348 2216368.514 -1629209.315 10 0 59469 48600.00000 0 24957663.084 1979832.236 -4848245.662 10 0 59469 49500.00000 0 24157053.616 1791798.937 -7973020.006 10 0 59469 50400.00000 0 22972204.638 1707088.431 -10942794.111 10 0 59469 51300.00000 0 21437977.157 1775205.626 -13699860.924 10 0 59469 52200.00000 0 19600535.904 2038013.672 -16190668.141 10 0 59469 53100.00000 0 17515506.880 2527735.989 -18366858.557 10 0 59469 54000.00000 0 15245756.688 3265372.189 -20186207.095 10 0 59469 54900.00000 0 12858886.833 4259595.136 -21613436.571 10 0 59469 55800.00000 0 10424547.942 5506175.973 -22620896.876 10 0 59469 56700.00000 0 8011685.847 6987961.690 -23189095.117 10 0 59469 57600.00000 0 5685833.904 8675406.591 -23307067.228 10 0 59469 58500.00000 0 3506563.704 10527635.873 -22972584.568 10 0 59469 59400.00000 0 1525199.267 12493997.397 -22192192.146 10 0 59469 60300.00000 0 -217111.360 14516037.474 -20981078.156 10 0 59469 61200.00000 0 -1690888.123 16529818.832 -19362777.535 10 0 59469 62100.00000 0 -2879313.911 18468484.712 -17368715.267 10 0 59469 63000.00000 0 -3778692.416 20264962.783 -15037597.986 10 0 59469 63900.00000 0 -4398351.074 21854696.482 -12414665.339 10 0 59469 64800.00000 0 -4759994.491 23178290.162 -9550815.124 10 0 59469 65700.00000 0 -4896536.546 24183957.742 -6501618.695 10 0 59469 66600.00000 0 -4850461.148 24829672.493 -3326245.429 10 0 59469 67500.00000 0 -4671781.425 25084927.924 -86316.805 10 0 59469 68400.00000 0 -4415683.983 24932035.782 3155287.762 10 0 59469 69300.00000 0 -4139958.114 24366906.444 6335650.104 10 0 59469 70200.00000 0 -3902319.010 23399278.623 9393033.740 10 0 59469 71100.00000 0 -3757738.460 22052388.304 12268081.769 10 0 59469 72000.00000 0 -3755896.234 20362090.344 14904968.744 10 0 59469 72900.00000 0 -3938860.283 18375469.052 17252484.129 10 0 59469 73800.00000 0 -4339094.255 16148995.377 19265026.349 10 0 59469 74700.00000 0 -4977877.002 13746307.297 20903488.165 10 0 59469 75600.00000 0 -5864201.518 11235705.563 22136016.409 10 0 59469 76500.00000 0 -6994200.610 8687468.696 22938631.572 10 0 59469 77400.00000 0 -8351124.542 6171098.664 23295695.318 10 0 59469 78300.00000 0 -9905872.826 3752611.341 23200217.013 10 0 59469 79200.00000 0 -11618059.176 1491983.947 22653993.272 10 0 59469 80100.00000 0 -13437566.224 -559134.819 21667577.592 10 0 59469 81000.00000 0 -15306526.110 -2359357.198 20260080.331 10 0 59469 81900.00000 0 -17161645.021 -3879051.500 18458802.395 10 0 59469 82800.00000 0 -18936775.075 -5101338.126 16298709.196 10 0 59469 83700.00000 0 -20565626.293 -6022545.614 13821754.508 10 0 59469 84600.00000 0 -21984505.162 -6652108.414 11076066.847 10 0 59469 85500.00000 0 -23134964.737 -7011911.468 8115013.915 10 0 59470 0.00000 0 -23966254.712 -7135110.146 4996163.212 10 0 59470 900.00000 0 -24437467.654 -7064476.279 1780158.782 10 0 59470 1800.00000 0 -24519291.507 -6850341.055 -1470462.609 10 0 59470 2700.00000 0 -24195292.253 -6548223.006 -4692493.531 10 0 59470 3600.00000 0 -23462674.256 -6216242.362 -7823290.765 10 0 59470 4500.00000 0 -22332484.499 -5912432.407 -10801998.440 10 0 59470 5400.00000 0 -20829252.614 -5692062.564 -13570734.926 10 0 59470 6300.00000 0 -18990081.602 -5605087.375 -16075719.895 10 0 59470 7200.00000 0 -16863227.591 -5693829.915 -18268319.244 10 0 59470 8100.00000 0 -14506228.316 -5990998.029 -20105987.630 10 0 59470 9000.00000 0 -11983658.759 -6518117.474 -21553090.614 10 0 59470 9900.00000 0 -9364607.807 -7284448.191 -22581590.884 10 0 59470 10800.00000 0 -6719981.029 -8286429.517 -23171586.028 10 0 59470 11700.00000 0 -4119741.521 -9507677.831 -23311688.170 10 0 59470 12600.00000 0 -1630203.075 -10919536.935 -22999238.833 10 0 59470 13500.00000 0 688512.691 -12482158.461 -22240355.494 10 0 59470 14400.00000 0 2784750.676 -14146067.498 -21049809.384 10 0 59470 15300.00000 0 4617234.750 -15854148.429 -19450737.051 10 0 59470 16200.00000 0 6156540.191 -17543968.484 -17474191.293 10 0 59470 17100.00000 0 7386066.245 -19150342.436 -15158539.875 10 0 59470 18000.00000 0 8302469.590 -20608031.618 -12548723.353 10 0 59470 18900.00000 0 8915541.976 -21854464.727 -9695385.930 10 0 59470 19800.00000 0 9247538.411 -22832366.761 -6653895.712 10 0 59470 20700.00000 0 9331985.090 -23492185.953 -3483273.075 10 0 59470 21600.00000 0 9212018.099 -23794216.890 -245047.643 10 0 59470 22500.00000 0 8938323.623 -23710330.458 2997934.110 10 0 59470 23400.00000 0 8566767.003 -23225237.589 6182727.364 10 0 59470 24300.00000 0 8155811.266 -22337233.251 9247509.896 10 0 59470 25200.00000 0 7763834.490 -21058388.822 12132781.586 10 0 59470 26100.00000 0 7446459.669 -19414184.101 14782519.043 10 0 59470 27000.00000 0 7254010.168 -17442593.678 17145262.869 10 0 59470 27900.00000 0 7229198.585 -15192665.099 19175116.490 10 0 59470 28800.00000 0 7405146.883 -12722647.596 20832637.224 10 0 59470 29700.00000 0 7803821.806 -10097748.740 22085602.482 10 0 59470 30600.00000 0 8434952.089 -7387611.768 22909636.476 10 0 59470 31500.00000 0 9295473.790 -4663618.054 23288685.381 10 0 59470 32400.00000 0 10369527.950 -1996126.195 23215331.901 10 0 59470 33300.00000 0 11629011.730 548238.119 22690943.054 10 0 59470 34200.00000 0 13034660.887 2909129.346 21725648.129 10 0 59470 35100.00000 0 14537619.258 5034761.152 20338146.896 10 0 59470 36000.00000 0 16081430.341 6883823.061 18555351.282 10 0 59470 36900.00000 0 17604368.145 8426955.384 16411866.901 10 0 59470 37800.00000 0 19042010.026 9647721.562 13949323.973 10 0 59470 38700.00000 0 20329943.677 10543038.017 11215570.052 10 0 59470 39600.00000 0 21406494.442 11123044.220 8263740.013 10 0 59470 40500.00000 0 22215357.915 11410419.381 5151221.238 10 0 59470 41400.00000 0 22708026.502 11439175.482 1938534.215 10 0 59470 42300.00000 0 22845907.031 11252978.555 -1311849.157 10 0 59470 43200.00000 0 22602039.487 10903070.235 -4536726.053 10 0 59470 44100.00000 0 21962343.759 10445878.533 -7673397.502 10 0 59470 45000.00000 0 20926341.241 9940419.982 -10660892.610 10 0 59470 45900.00000 0 19507320.472 9445604.061 -13441157.737 10 0 59470 46800.00000 0 17731939.501 9017554.785 -15960186.980 10 0 59470 47700.00000 0 15639281.495 8707063.369 -18169071.633 10 0 59470 48600.00000 0 13279403.112 8557280.056 -20024948.214 10 0 59470 49500.00000 0 10711436.261 8601742.769 -21491826.955 10 0 59470 50400.00000 0 8001322.536 8862825.775 -22541285.104 10 0 59470 51300.00000 0 5219274.561 9350673.634 -23153012.287 10 0 59470 52200.00000 0 2437069.552 10062665.188 -23315198.144 10 0 59470 53100.00000 0 -274712.846 10983429.991 -23024755.398 10 0 59470 54000.00000 0 -2849394.495 12085416.531 -22287374.702 10 0 59470 54900.00000 0 -5226733.190 13329988.502 -21117410.631 10 0 59470 55800.00000 0 -7355183.380 14669003.417 -19537601.240 10 0 59470 56700.00000 0 -9193790.582 16046807.751 -17578626.606 10 0 59470 57600.00000 0 -10713642.011 17402565.426 -15278514.672 10 0 59470 58500.00000 0 -11898814.353 18672822.436 -12681905.569 10 0 59470 59400.00000 0 -12746780.431 19794200.422 -9839188.227 10 0 59470 60300.00000 0 -13268259.057 20706106.466 -6805525.526 10 0 59470 61200.00000 0 -13486515.384 21353345.389 -3639786.603 10 0 59470 62100.00000 0 -13436142.154 21688524.780 -403406.742 10 0 59470 63000.00000 0 -13161373.890 21674151.397 2840803.198 10 0 59470 63900.00000 0 -12714005.648 21284330.400 6029874.606 10 0 59470 64800.00000 0 -12151004.658 20505995.363 9101902.492 10 0 59470 65700.00000 0 -11531915.963 19339616.665 11997246.598 10 0 59470 66600.00000 0 -10916171.923 17799357.685 14659688.703 10 0 59470 67500.00000 0 -10360419.352 15912671.305 17037523.627 10 0 59470 68400.00000 0 -9915977.291 13719352.671 19084562.785 10 0 59470 69300.00000 0 -9626532.844 11270086.838 20761030.865 10 0 59470 70200.00000 0 -9526172.430 8624550.993 22034338.420 10 0 59470 71100.00000 0 -9637831.666 5849149.366 22879715.631 10 0 59470 72000.00000 0 -9972229.534 3014474.323 23280695.047 10 0 59470 72900.00000 0 -10527332.174 192598.380 23229434.108 10 0 59470 73800.00000 0 -11288369.495 -2545691.146 22726871.123 10 0 59470 74700.00000 0 -12228404.593 -5133600.533 21782711.507 10 0 59470 75600.00000 0 -13309432.866 -7510869.247 20415244.191 10 0 59470 76500.00000 0 -14483965.365 -9626035.730 18650991.277 10 0 59470 77400.00000 0 -15697030.498 -11438335.545 16524197.181 10 0 59470 78300.00000 0 -16888510.400 -12919153.355 14076166.625 10 0 59470 79200.00000 0 -17995713.950 -14052968.705 11354463.800 10 0 59470 80100.00000 0 -18956078.075 -14837756.647 8411987.975 10 0 59470 81000.00000 0 -19709883.282 -15284827.180 5305943.389 10 0 59470 81900.00000 0 -20202868.434 -15418111.153 2096723.544 10 0 59470 82800.00000 0 -20388633.758 -15272923.602 -1153267.934 10 0 59470 83700.00000 0 -20230729.941 -14894257.744 -4380836.364 10 0 59470 84600.00000 0 -19704344.308 -14334682.746 -7523230.615 10 0 59470 85500.00000 0 -18797512.203 -13651935.179 -10519368.332 10 0 59471 0.00000 0 -17511801.880 -12906306.939 -13311027.276 10 0 59471 900.00000 0 -15862443.035 -12157941.166 -15843979.370 10 0 59471 1800.00000 0 -13877894.383 -11464150.352 -18069044.260 10 0 59471 2700.00000 0 -11598866.155 -10876871.723 -19943042.916 10 0 59471 3600.00000 0 -9076839.958 -10440365.846 -21429632.331 10 0 59471 4500.00000 0 -6372146.513 -10189256.604 -22500005.785 10 0 59471 5400.00000 0 -3551681.567 -10146994.279 -23133445.763 10 0 59471 6300.00000 0 -686354.470 -10324806.195 -23317719.566 10 0 59471 7200.00000 0 2151624.911 -10721178.605 -23049310.650 10 0 59471 8100.00000 0 4891509.047 -11321891.201 -22333481.829 10 0 59471 9000.00000 0 7466711.571 -12100602.554 -21184169.559 10 0 59471 9900.00000 0 9817330.976 -13019961.768 -19623711.570 10 0 59471 10800.00000 0 11892395.569 -14033199.721 -17682413.099 10 0 59471 11700.00000 0 13651737.594 -15086133.260 -15397959.916 10 0 59471 12600.00000 0 15067419.672 -16119498.404 -12814689.175 10 0 59471 13500.00000 0 16124655.367 -17071514.797 -9982731.801 10 0 59471 14400.00000 0 16822186.567 -17880573.811 -6957042.579 10 0 59471 15300.00000 0 17172102.937 -18487937.362 -3796336.435 10 0 59471 16200.00000 0 17199111.972 -18840333.800 -561951.296 10 0 59471 17100.00000 0 16939291.123 -18892341.406 2683340.591 10 0 59471 18000.00000 0 16438375.145 -18608458.728 5876549.714 10 0 59471 18900.00000 0 15749651.341 -17964774.018 8955691.044 10 0 59471 19800.00000 0 14931551.798 -16950162.743 11860986.669 10 0 59471 20700.00000 0 14045044.434 -15566961.929 14536025.725 10 0 59471 21600.00000 0 13150933.048 -13831091.983 16928859.110 10 0 59471 22500.00000 0 12307180.310 -11771619.704 18993007.741 10 0 59471 23400.00000 0 11566366.550 -9429779.654 20688364.824 10 0 59471 24300.00000 0 10973391.407 -6857493.555 21981974.847 10 0 59471 25200.00000 0 10563515.108 -4115448.286 22848674.388 10 0 59471 26100.00000 0 10360821.877 -1270811.457 23271582.456 10 0 59471 27000.00000 0 10377170.205 1605321.429 23242430.983 10 0 59471 27900.00000 0 10611674.384 4440643.118 22761729.034 10 0 59471 28800.00000 0 11050739.407 7164401.925 21838757.344 10 0 59471 29700.00000 0 11668648.188 9710105.991 20491392.972 10 0 59471 30600.00000 0 12428676.870 12018052.712 18745766.971 10 0 59471 31500.00000 0 13284691.687 14037578.493 16635761.160 10 0 59471 32400.00000 0 14183160.537 15728935.622 14202353.219 10 0 59471 33300.00000 0 15065494.679 17064718.407 11492822.278 10 0 59471 34200.00000 0 15870621.815 18030779.343 8559830.150 10 0 59471 35100.00000 0 16537681.746 18626597.567 5460395.934 10 0 59471 36000.00000 0 17008730.332 18865084.780 2254783.995 10 0 59471 36900.00000 0 17231336.842 18771837.573 -994672.571 10 0 59471 37800.00000 0 17160964.199 18383868.579 -4224789.567 10 0 59471 38700.00000 0 16763030.627 17747870.955 -7372766.050 10 0 59471 39600.00000 0 16014564.786 16918090.439 -10377410.523 10 0 59471 40500.00000 0 14905383.691 15953895.847 -13180334.471 10 0 59471 41400.00000 0 13438743.002 14917151.489 -15727089.523 10 0 59471 42300.00000 0 11631431.666 13869503.092 -17968225.690 10 0 59471 43200.00000 0 9513306.381 12869692.251 -19860250.179 10 0 59471 44100.00000 0 7126284.835 11971012.764 -21366468.353 10 0 59471 45000.00000 0 4522839.458 11219015.923 -22457690.963 10 0 59471 45900.00000 0 1764054.046 10649560.968 -23112794.616 10 0 59471 46800.00000 0 -1082676.296 10287292.102 -23319125.324 10 0 59471 47700.00000 0 -3946206.761 10144605.417 -23072738.048 10 0 59471 48600.00000 0 -6754360.273 10221148.384 -22378468.192 10 0 59471 49500.00000 0 -9436688.787 10503872.249 -21249834.143 10 0 59471 50400.00000 0 -11927164.662 10967634.632 -19708772.929 10 0 59471 51300.00000 0 -14166691.415 11576326.605 -17785214.163 10 0 59471 52200.00000 0 -16105330.599 12284476.708 -15516500.272 10 0 59471 53100.00000 0 -17704153.172 13039264.425 -12946663.949 10 0 59471 54000.00000 0 -18936639.327 13782858.441 -10125576.388 10 0 59471 54900.00000 0 -19789569.384 14454981.355 -7107982.348 10 0 59471 55800.00000 0 -20263369.356 14995592.877 -3952440.479 10 0 59471 56700.00000 0 -20371897.626 15347578.362 -720189.151 10 0 59471 57600.00000 0 -20141682.370 15459329.177 2526040.315 10 0 59471 58500.00000 0 -19610642.401 15287105.762 5723239.948 10 0 59471 59400.00000 0 -18826345.731 14797083.199 8809347.246 10 0 59471 60300.00000 0 -17843879.540 13966992.395 11724449.311 10 0 59471 61200.00000 0 -16723421.507 12787286.883 14411945.393 10 0 59471 62100.00000 0 -15527614.962 11261785.108 16819645.243 10 0 59471 63000.00000 0 -14318858.393 9407760.002 18900782.003 10 0 59471 63900.00000 0 -13156623.385 7255470.853 20614919.988 10 0 59471 64800.00000 0 -12094913.677 4847155.654 21928739.981 10 0 59471 65700.00000 0 -11179972.001 2235524.643 22816687.036 10 0 59471 66600.00000 0 -10448330.931 -518183.429 23261468.327 10 0 59471 67500.00000 0 -9925289.420 -3346502.656 23254391.573 10 0 59471 68400.00000 0 -9623878.926 -6178304.362 22795537.433 10 0 59471 69300.00000 0 -9544362.532 -8941518.866 21893762.321 10 0 59471 70200.00000 0 -9674288.109 -11565902.289 20566531.287 10 0 59471 71100.00000 0 -9989093.388 -13985734.108 18839583.703 10 0 59471 72000.00000 0 -10453237.610 -16142333.590 16746437.681 10 0 59471 72900.00000 0 -11021812.164 -17986290.715 14327742.304 10 0 59471 73800.00000 0 -11642562.356 -19479318.861 11630489.686 10 0 59471 74700.00000 0 -12258234.863 -20595652.027 8707101.898 10 0 59471 75600.00000 0 -12809151.470 -21322928.490 5614410.330 10 0 59471 76500.00000 0 -13235899.814 -21662524.265 2412547.426 10 0 59471 77400.00000 0 -13482026.712 -21629322.845 -836227.212 10 0 59471 78300.00000 0 -13496619.335 -21250931.652 -4068742.989 10 0 59471 79200.00000 0 -13236664.153 -20566378.977 -7222152.379 10 0 59471 80100.00000 0 -12669082.987 -19624347.266 -10235158.051 10 0 59471 81000.00000 0 -11772359.220 -18481018.159 -13049208.510 10 0 59471 81900.00000 0 -10537684.659 -17197621.039 -15609638.472 10 0 59471 82800.00000 0 -8969577.968 -15837789.175 -17866731.409 10 0 59471 83700.00000 0 -7085947.939 -14464835.374 -19776683.606 10 0 59471 84600.00000 0 -4917598.275 -13139062.049 -21302451.252 10 0 59471 85500.00000 0 -2507194.071 -11915218.841 -22414464.522 99